RH
58 66 75 72 77 76 68 57 61 62 63 62 59 60 62 69 75 83 83 83 86 81 82 82 87 91 93 90 88 83 78 72 73 72 73 73 74 75 78 83 83 75 54 54 54 48 45 43 40
68 69 71 68 82 81 63 55 55 52 51 52 57 59 63 74 71 77 78 83 86 85 83 79 84 81 81 82 87 80 77 71 73 74 74 76 80 84 81 82 78 64 46 46 44 38 36 36 35
67 68 75 69 79 86 66 58 54 54 55 55 52 53 57 75 70 77 77 79 81 87 86 79 84 86 83 78 75 72 70 72 73 76 80 80 83 88 85 85 72 44 38 37 35 32 33 36 39
73 72 69 72 79 67 66 66 59 57 55 54 47 57 50 56 62 70 72 74 75 78 90 86 84 88 85 79 78 74 76 79 81 86 90 87 90 90 83 78 68 41 40 32 31 32 35 41 49
65 66 64 67 80 66 64 60 58 61 57 59 47 66 52 54 59 65 69 67 69 78 88 90 88 93 89 85 82 80 81 83 87 93 90 89 89 91 79 74 51 38 36 31 32 36 42 51 58
69 64 75 74 76 70 61 58 63 58 52 46 49 46 52 54 58 63 69 71 73 74 79 87 92 93 91 90 88 88 88 91 94 93 92 87 88 89 75 59 40 35 32 31 35 46 56 62 67
58 65 71 72 71 70 62 65 65 56 51 51 46 56 51 57 58 63 65 74 79 85 81 83 83 85 88 89 88 91 93 93 95 97 92 91 89 85 74 51 37 28 29 30 39 50 61 65 70
59 61 66 74 79 76 68 66 62 57 58 49 49 67 69 59 57 60 66 73 78 80 82 82 80 82 82 85 91 94 94 95 97 96 93 92 91 84 63 42 29 31 31 34 41 52 62 68 70
59 70 75 65 71 77 72 68 62 56 53 53 53 56 56 56 60 62 63 70 79 82 81 79 80 86 83 82 86 92 96 93 96 95 94 91 87 73 49 42 31 35 33 36 47 63 69 69 69
57 68 80 70 67 73 78 69 71 65 58 66 54 56 55 58 61 67 70 75 75 76 79 83 84 89 86 89 88 90 93 96 96 95 92 89 86 73 66 34 35 36 36 47 63 69 70 69 78
61 65 65 69 73 71 75 78 71 64 69 60 59 60 60 63 63 62 65 67 68 72 76 79 80 83 87 92 94 92 93 94 95 91 88 94 84 67 50 37 39 38 39 60 68 72 78 80 72
67 62 65 68 71 74 74 73 69 71 84 61 57 57 60 67 65 67 67 66 66 62 65 72 79 79 87 89 91 92 91 87 88 84 85 86 76 59 51 53 53 44 55 65 72 87 72 77 76
58 61 66 68 70 77 76 74 76 72 55 56 55 58 64 65 64 65 63 60 61 67 70 70 71 79 83 88 88 88 87 86 87 79 83 82 73 49 43 45 46 47 56 66 68 76 84 72 71
58 62 63 67 71 78 76 74 71 73 56 58 56 64 66 64 62 60 59 63 66 71 72 72 79 77 83 88 85 85 84 93 81 82 80 73 63 43 44 43 47 44 47 57 66 69 64 75 70
55 64 70 65 69 71 74 74 76 89 61 58 59 62 61 65 63 60 62 63 68 71 78 77 83 82 85 83 90 89 90 85 93 89 71 70 53 36 47 46 47 41 42 49 61 60 62 72 65
58 60 69 59 67 72 70 79 80 69 60 59 62 63 63 64 65 58 60 62 66 73 83 85 89 87 83 83 84 87 90 82 84 80 69 62 47 37 41 47 49 39 45 54 64 57 83 78 91
60 51 52 65 60 63 67 68 74 71 74 64 58 61 66 69 67 61 58 58 66 73 75 81 83 84 80 81 80 84 88 90 80 75 70 56 45 38 47 50 50 48 54 68 60 84 82 70 76
47 46 49 53 60 58 64 70 69 72 70 64 56 61 66 66 67 63 56 53 64 69 72 77 87 86 82 88 84 86 85 83 76 61 60 45 50 40 40 49 47 50 60 62 63 48 52 55 48
40 41 44 47 51 55 63 63 64 68 60 58 57 58 65 59 67 62 55 51 56 63 66 71 82 83 80 84 85 87 81 82 71 57 55 43 49 42 41 51 47 49 66 66 52 52 54 43 56
39 36 39 45 44 49 57 67 64 61 56 52 50 58 62 66 63 60 52 51 51 56 60 67 72 75 81 82 85 76 69 64 76 64 48 47 46 41 48 54 56 52 67 57 53 47 46 50 53
35 33 33 41 39 59 65 63 65 58 58 57 59 58 60 62 66 62 58 52 51 51 56 62 62 62 65 73 80 75 74 86 62 68 52 46 49 49 56 55 67 59 54 61 52 49 44 51 49
33 30 31 31 40 56 57 78 65 54 51 56 55 58 58 59 63 64 63 57 59 50 50 53 56 64 64 68 78 77 76 78 66 58 54 53 57 61 63 59 54 54 57 57 48 43 46 49 54
35 28 31 28 31 39 60 59 71 61 52 50 51 54 56 58 59 66 66 63 62 56 51 53 52 51 62 63 68 69 73 66 54 68 63 59 62 59 60 61 58 54 51 49 42 48 44 54 51
29 28 33 37 36 35 54 34 57 63 53 50 49 46 49 49 54 57 68 67 66 58 57 54 53 50 52 58 62 69 70 79 64 66 79 56 68 59 55 52 48 47 51 47 42 42 44 46 54
29 35 33 31 47 53 45 28 54 45 42 43 50 50 46 47 53 55 60 68 68 64 65 56 56 55 54 54 55 53 58 62 67 68 65 67 68 74 58 47 48 46 44 44 47 46 46 51 50
34 36 32 34 24 23 32 31 39 39 40 42 43 46 51 50 46 52 55 63 68 69 69 59 58 57 57 55 54 55 57 59 62 63 64 66 82 78 81 53 50 48 49 51 46 46 51 54 50
28 32 31 29 24 22 22 26 27 39 46 43 46 43 49 50 49 50 55 59 65 67 66 62 61 58 58 56 55 55 54 58 63 61 58 60 72 62 69 63 57 57 52 52 57 51 51 53 60
19 24 32 31 30 30 24 33 26 38 43 42 43 44 42 44 45 46 53 60 65 66 67 68 67 66 63 62 56 57 55 51 56 60 58 59 58 58 57 57 53 57 53 57 58 58 54 49 56
26 23 26 28 27 25 25 27 34 41 37 38 43 41 40 40 45 44 48 52 61 64 65 69 71 71 72 71 72 67 59 57 55 55 55 53 52 53 53 52 53 57 59 58 56 55 61 72 61
29 27 28 27 29 31 31 27 29 35 32 33 49 43 40 38 40 42 44 49 58 60 62 67 74 70 74 75 75 77 73 64 59 56 55 55 52 52 48 49 52 57 53 56 57 58 59 58 62